User: anonymous   Login
Location: Chevoux
(46.3801°N, 4.9476°E)
Time: 23:40:13
(UTC+00:00)
Language:

AO-7 - Orbit

View from above orbital plane
View from above orbital plane
View from above satellite
View from above satellite

Ground track
Ground track

The orbit data is extracted from the following two-line orbital elements,

1  7530U 74089B   21172.66496325 -.00000035  00000-0  65484-4 0  9997
2  7530 101.8539 147.1631 0012441  16.0248 158.4276 12.53649216132491
Epoch (UTC): 21 June 2021 15:57:32
Eccentricity: 0.0012441
inclination: 101.8539°
perigee height: 1439 km
apogee height: 1459 km
right ascension of ascending node: 147.1631°
argument of perigee: 16.0248°
revolutions per day: 12.53649216
mean anomaly at epoch: 158.4276°
orbit number at epoch: 13249

The dashed part of the orbit path shows where the satellite is in the earth's shadow,  

DLR